Location: Buch
(49.7331°N, 12.1098°E)
Time: 19:45:17
(UTC+00:00)

Landsat 7 - Pass Details

Date: 03 October 2021
Orbit: 701 x 703 km, 98.0° (Epoch: 24 October)

Event Time Altitude Azimuth Distance (km) Brightness Sun altitude
Exits shadow 21:00:13 17° 295° (WNW) 1,744 6.3 -38.0°
Drops below altitude 10° 21:02:08 10° 317° (NW) 2,180 7.1 -38.2°
Sets 21:05:00 0° 334° (NNW) 3,103 8.0 -38.4°
